WICK1: Arkansas River Nr Maize, KS

Data processed at Mon Dec 09 2019 23:55


All information presented herein is the property of the government of the United States of America and may be revised or deleted at any time without prior notice.
Dissemination of this information without the expressed written consent of the Public Affairs Office, Tulsa District U.S. Army Corps of Engineers is strictly prohibited.
These data are gathered electronically and, as presented, have not undergone any form of quality control. These data are not guaranteed to be valid or correct.
Go to home page.
Go to station list.
Go to home page.

Upstream stations:

Downstream station:
Previous Day
Next Day
Current Day
    
SHEF ID:       WICK1     ARKANSAS R NR MAIZE, KS
STATION TYPE:  

               PRECIP     STAGE  RIV-FLOW  BAT-LOAD
                   in        ft       cfs      volt
              Ccp-Rev   Ccp-Rev   Ccp-Rev   Ccp-Rev
(US/Central)
12/09 00:00      0.00      5.38       362     12.57
12/09 01:00      0.00      5.38       362     12.57
12/09 02:00      0.00      5.37       358     12.57
12/09 03:00      0.00      5.38       362     12.49
12/09 04:00      0.00      5.38       362     12.49
12/09 05:00      0.00      5.38       362     12.49
12/09 06:00      0.00      5.39       365     12.49
12/09 07:00      0.00      5.39       365     12.49
12/09 08:00      0.00      5.39       365     12.49
12/09 09:00      0.00      5.39       365     12.49
12/09 10:00      0.00      5.39       365     12.73
12/09 11:00      0.00      5.38       362     13.37
12/09 12:00      0.00      5.39       365     14.08
12/09 13:00      0.00      5.40       369     14.08
12/09 14:00      0.00      5.38       362     13.84
12/09 15:00      0.00      5.38       362     13.76
12/09 16:00      0.00      5.37       358     13.84
12/09 17:00      0.00      5.38       362     13.44
12/09 18:00      0.00      5.37       358     12.89
12/09 19:00      0.00      5.37       358     12.81
12/09 20:00      0.00      5.37       358     12.73
12/09 21:00      0.00      5.37       358     12.65
12/09 22:00      0.00      5.37       358     12.65
12/09 23:00      0.00      5.37       358     12.57